TimePST,TemperatureF,Dew PointF,Humidity,Sea Level PressureIn,VisibilityMPH,Wind Direction,Wind SpeedMPH,Gust SpeedMPH,PrecipitationIn,Events,Conditions,WindDirDegrees,DateUTC
12:53 AM,42.1,37.9,85,30.27,10.0,ESE,5.8,-,N/A,,Overcast,120,2013-02-28 08:53:00
1:06 AM,41.0,37.4,87,30.26,10.0,ESE,6.9,-,N/A,,Overcast,120,2013-02-28 09:06:00
1:35 AM,41.0,37.4,87,30.24,10.0,ESE,6.9,-,0.00,Rain,Light Rain,110,2013-02-28 09:35:00
1:53 AM,42.1,37.9,85,30.25,10.0,East,8.1,-,0.00,,Overcast,100,2013-02-28 09:53:00
2:53 AM,41.0,37.9,89,30.25,10.0,ESE,6.9,-,0.01,Rain,Light Rain,120,2013-02-28 10:53:00
3:53 AM,43.0,37.9,82,30.23,10.0,Variable,5.8,-,0.02,Rain,Light Rain,0,2013-02-28 11:53:00
4:53 AM,41.0,39.0,93,30.23,10.0,SSE,3.5,-,0.02,Rain,Light Rain,160,2013-02-28 12:53:00
5:53 AM,42.1,39.9,92,30.22,10.0,ESE,3.5,-,0.00,,Overcast,110,2013-02-28 13:53:00
6:53 AM,42.1,39.0,89,30.21,10.0,ESE,6.9,-,0.01,,Overcast,110,2013-02-28 14:53:00
7:53 AM,41.0,37.9,89,30.19,10.0,ESE,6.9,-,0.00,Rain,Light Rain,120,2013-02-28 15:53:00
8:53 AM,42.1,39.0,89,30.20,8.0,Variable,3.5,-,0.04,Rain,Light Rain,0,2013-02-28 16:53:00
9:53 AM,43.0,39.9,89,30.20,10.0,SSE,9.2,-,0.01,Rain,Light Rain,150,2013-02-28 17:53:00
10:08 AM,44.6,41.0,87,30.19,10.0,SSE,10.4,18.4,0.01,Rain,Light Rain,150,2013-02-28 18:08:00
10:50 AM,44.6,42.8,93,30.19,2.5,SSE,12.7,18.4,0.02,Rain,Light Rain,150,2013-02-28 18:50:00
10:53 AM,44.1,42.1,93,30.20,2.5,SSE,13.8,18.4,0.02,Rain,Light Rain,150,2013-02-28 18:53:00
11:16 AM,44.6,42.8,93,30.20,2.5,SSE,9.2,18.4,0.00,Rain,Light Rain,150,2013-02-28 19:16:00
11:24 AM,44.6,42.8,93,30.20,5.0,SSE,10.4,-,0.00,Rain,Light Rain,150,2013-02-28 19:24:00
11:46 AM,44.6,42.8,93,30.20,10.0,SSE,13.8,-,0.00,,Overcast,150,2013-02-28 19:46:00
11:53 AM,45.0,43.0,93,30.22,8.0,SSE,10.4,16.1,0.00,,Overcast,160,2013-02-28 19:53:00
12:02 PM,44.6,42.8,93,30.21,2.5,SSE,12.7,-,0.00,Rain,Light Rain,160,2013-02-28 20:02:00
12:53 PM,46.9,44.1,90,30.22,2.5,SSE,12.7,19.6,0.00,Rain,Light Rain,150,2013-02-28 20:53:00
1:00 PM,46.4,44.6,93,30.21,10.0,SSE,13.8,23.0,0.00,Rain,Light Rain,150,2013-02-28 21:00:00
1:53 PM,46.9,44.1,90,30.23,10.0,SSE,12.7,20.7,0.01,Rain,Light Rain,150,2013-02-28 21:53:00
2:53 PM,46.9,45.0,93,30.26,10.0,SSE,9.2,-,0.00,Rain,Light Rain,150,2013-02-28 22:53:00
3:53 PM,46.9,45.0,93,30.27,10.0,SSE,10.4,-,0.00,Rain,Light Rain,150,2013-02-28 23:53:00
4:53 PM,48.0,46.0,93,30.26,10.0,SE,8.1,-,0.00,Rain,Light Rain,140,2013-03-01 00:53:00
5:53 PM,48.9,46.9,93,30.25,1.0,SSE,11.5,-,0.00,,Overcast,160,2013-03-01 01:53:00
6:00 PM,48.2,46.4,93,30.24,1.0,SSE,11.5,-,N/A,,Overcast,150,2013-03-01 02:00:00
6:31 PM,50.0,48.2,94,30.24,10.0,South,17.3,25.3,N/A,,Overcast,180,2013-03-01 02:31:00
6:53 PM,50.0,48.0,93,30.25,10.0,South,13.8,20.7,N/A,,Overcast,180,2013-03-01 02:53:00
6:56 PM,50.0,48.2,94,30.23,10.0,South,17.3,26.5,N/A,,Mostly Cloudy,180,2013-03-01 02:56:00
7:00 PM,50.0,46.4,87,30.23,10.0,South,18.4,28.8,N/A,,Mostly Cloudy,180,2013-03-01 03:00:00
7:53 PM,50.0,48.0,93,30.25,10.0,South,23.0,34.5,N/A,,Mostly Cloudy,180,2013-03-01 03:53:00
8:11 PM,51.8,46.4,82,30.24,10.0,South,24.2,35.7,N/A,,Overcast,180,2013-03-01 04:11:00
8:53 PM,51.1,46.9,86,30.26,10.0,South,23.0,33.4,N/A,,Overcast,180,2013-03-01 04:53:00
9:49 PM,50.0,46.4,87,30.27,10.0,South,31.1,41.4,N/A,,Overcast,180,2013-03-01 05:49:00
9:53 PM,50.0,46.9,89,30.28,10.0,South,27.6,41.4,N/A,,Overcast,190,2013-03-01 05:53:00
10:05 PM,50.0,48.2,94,30.27,10.0,South,24.2,32.2,N/A,,Overcast,190,2013-03-01 06:05:00
10:27 PM,50.0,46.4,87,30.28,10.0,South,21.9,32.2,N/A,,Overcast,180,2013-03-01 06:27:00
10:39 PM,50.0,46.4,87,30.28,10.0,South,20.7,32.2,N/A,,Mostly Cloudy,180,2013-03-01 06:39:00
10:50 PM,50.0,46.4,87,30.29,10.0,South,27.6,35.7,N/A,,Partly Cloudy,180,2013-03-01 06:50:00
10:53 PM,50.0,46.9,89,30.30,10.0,South,29.9,36.8,N/A,,Partly Cloudy,180,2013-03-01 06:53:00
11:11 PM,50.0,46.4,87,30.27,10.0,South,24.2,32.2,N/A,,Mostly Cloudy,180,2013-03-01 07:11:00
11:19 PM,50.0,46.4,87,30.29,10.0,South,26.5,35.7,N/A,,Mostly Cloudy,180,2013-03-01 07:19:00
11:53 PM,50.0,48.2,94,30.28,10.0,South,24.2,32.2,N/A,,Overcast,180,2013-03-01 07:53:00